TimePDT,TemperatureF,Dew PointF,Humidity,Sea Level PressureIn,VisibilityMPH,Wind Direction,Wind SpeedMPH,Gust SpeedMPH,PrecipitationIn,Events,Conditions,WindDirDegrees,DateUTC
12:03 AM,33.8,32.0,93,30.20,1.2,North,11.5,-,N/A,,Mostly Cloudy,360,2013-04-09 07:03:00
12:12 AM,33.8,32.0,93,30.20,0.5,North,11.5,-,N/A,Fog,Fog,10,2013-04-09 07:12:00
12:17 AM,33.8,30.2,87,30.20,1.8,North,10.4,-,N/A,,Mostly Cloudy,10,2013-04-09 07:17:00
12:19 AM,33.8,30.2,87,30.20,4.0,NNE,10.4,-,N/A,,Mostly Cloudy,20,2013-04-09 07:19:00
12:29 AM,33.8,30.2,87,30.21,10.0,NNE,10.4,-,N/A,,Scattered Clouds,20,2013-04-09 07:29:00
12:56 AM,33.1,30.9,92,30.28,10.0,NNE,11.5,-,N/A,,Clear,30,2013-04-09 07:56:00
1:39 AM,33.8,32.0,93,30.21,1.8,North,8.1,-,N/A,,Mostly Cloudy,10,2013-04-09 08:39:00
1:45 AM,33.8,32.0,93,30.21,0.8,North,9.2,-,N/A,,Mostly Cloudy,10,2013-04-09 08:45:00
1:56 AM,33.1,32.0,96,30.28,0.5,NNE,8.1,-,N/A,Fog,Fog,20,2013-04-09 08:56:00
2:00 AM,33.8,32.0,93,30.21,1.0,NNE,6.9,-,N/A,,Overcast,20,2013-04-09 09:00:00
2:03 AM,33.8,32.0,93,30.21,2.0,NNE,6.9,-,N/A,,Overcast,20,2013-04-09 09:03:00
2:14 AM,33.8,32.0,93,30.21,1.2,NNE,6.9,-,N/A,,Overcast,20,2013-04-09 09:14:00
2:22 AM,33.8,32.0,93,30.21,0.5,Variable,3.5,-,N/A,Fog,Fog,0,2013-04-09 09:22:00
2:29 AM,32.0,30.2,93,30.21,1.5,East,3.5,-,N/A,,Mostly Cloudy,90,2013-04-09 09:29:00
2:32 AM,32.0,30.2,93,30.21,3.0,East,3.5,-,N/A,,Mostly Cloudy,80,2013-04-09 09:32:00
2:56 AM,32.0,30.0,92,30.28,10.0,NE,3.5,-,N/A,,Partly Cloudy,50,2013-04-09 09:56:00
3:56 AM,34.0,28.9,82,30.27,10.0,Calm,Calm,-,N/A,,Scattered Clouds,0,2013-04-09 10:56:00
4:56 AM,34.0,28.9,82,30.27,10.0,Calm,Calm,-,N/A,,Overcast,0,2013-04-09 11:56:00
5:56 AM,33.1,30.9,92,30.29,10.0,SE,4.6,-,N/A,,Overcast,140,2013-04-09 12:56:00
6:56 AM,34.0,28.9,82,30.29,10.0,SE,4.6,-,N/A,,Overcast,140,2013-04-09 13:56:00
7:56 AM,34.0,30.0,85,30.30,10.0,ESE,5.8,-,N/A,,Overcast,120,2013-04-09 14:56:00
8:56 AM,37.0,33.1,86,30.30,10.0,SE,4.6,-,N/A,,Scattered Clouds,130,2013-04-09 15:56:00
9:20 AM,39.2,35.6,87,30.25,10.0,ESE,6.9,-,N/A,,Partly Cloudy,120,2013-04-09 16:20:00
9:47 AM,39.2,35.6,87,30.27,10.0,ESE,4.6,-,N/A,,Mostly Cloudy,120,2013-04-09 16:47:00
9:56 AM,39.0,35.1,86,30.32,10.0,Variable,3.5,-,N/A,,Mostly Cloudy,0,2013-04-09 16:56:00
10:03 AM,39.2,35.6,87,30.27,10.0,Variable,3.5,-,N/A,,Overcast,0,2013-04-09 17:03:00
10:43 AM,39.2,35.6,87,30.28,10.0,ESE,6.9,-,N/A,,Overcast,110,2013-04-09 17:43:00
10:56 AM,39.9,37.0,89,30.33,8.0,Calm,Calm,-,N/A,,Overcast,0,2013-04-09 17:56:00
11:10 AM,42.8,35.6,76,30.28,10.0,Variable,4.6,-,N/A,,Mostly Cloudy,0,2013-04-09 18:10:00
11:56 AM,45.0,39.0,80,30.33,10.0,Calm,Calm,-,N/A,,Partly Cloudy,0,2013-04-09 18:56:00
12:56 PM,46.9,41.0,80,30.31,10.0,Calm,Calm,-,N/A,,Overcast,0,2013-04-09 19:56:00
1:56 PM,48.0,39.9,74,30.31,10.0,Calm,Calm,-,N/A,,Overcast,0,2013-04-09 20:56:00
2:56 PM,51.1,39.0,63,30.31,10.0,Calm,Calm,-,N/A,,Partly Cloudy,0,2013-04-09 21:56:00
3:56 PM,51.1,34.0,52,30.30,10.0,Variable,3.5,-,N/A,,Overcast,0,2013-04-09 22:56:00
4:56 PM,53.1,32.0,45,30.28,10.0,Calm,Calm,-,N/A,,Clear,0,2013-04-09 23:56:00
5:56 PM,51.1,37.0,59,30.30,10.0,Variable,3.5,-,N/A,,Clear,0,2013-04-10 00:56:00
6:56 PM,48.9,34.0,56,30.30,10.0,Variable,4.6,-,N/A,,Clear,0,2013-04-10 01:56:00
7:56 PM,46.0,32.0,58,30.32,10.0,North,9.2,-,N/A,,Clear,350,2013-04-10 02:56:00
8:56 PM,46.9,33.1,59,30.31,10.0,North,6.9,-,N/A,,Clear,10,2013-04-10 03:56:00
9:56 PM,46.9,30.9,54,30.31,10.0,Calm,Calm,-,N/A,,Clear,0,2013-04-10 04:56:00
10:56 PM,48.9,33.1,54,30.30,10.0,NW,3.5,-,N/A,,Clear,310,2013-04-10 05:56:00
11:56 PM,48.0,34.0,58,30.28,10.0,SW,6.9,-,N/A,,Clear,230,2013-04-10 06:56:00